User: anonymous   Login
Location: Callao
(39.8979°N, 113.7141°W)
Time: 20:40:34
(UTC+00:00)
Language:

QB50P2 - Orbit

View from above orbital plane
View from above orbital plane
View from above satellite
View from above satellite

Ground track
Ground track

The orbit data is extracted from the following two-line orbital elements,

1 40032U 14033Y   21124.97179842  .00000313  00000-0  39308-4 0  9991
2 40032  97.9159  52.2362 0010934 325.5080  34.5426 14.88922122373344
Epoch (UTC): 04 May 2021 23:19:23
Eccentricity: 0.0010934
inclination: 97.9159°
perigee height: 593 km
apogee height: 609 km
right ascension of ascending node: 52.2362°
argument of perigee: 325.5080°
revolutions per day: 14.88922122
mean anomaly at epoch: 34.5426°
orbit number at epoch: 37334

The dashed part of the orbit path shows where the satellite is in the earth's shadow,  

DLR